Regional Weather Roundup
Issued by NWS New Orleans/Baton Rouge, LA

Home | Current Version | Previous Version | Text Only | Print | Product List | Glossary On
Versions: 1 2 3 4 5 6 7 8 9 10 11 12 13 14 15 16 17 18 19 20 21 22 23 24 25 26 27 28 29 30 31 32 33 34 35 36 37 38 39 40 41 42 43 44 45 46 47 48 49 50
000
ASUS44 KLIX 221910
RWRLIX
NEW ORLEANS REGIONAL WEATHER ROUNDUP
NATIONAL WEATHER SERVICE NEW ORLEANS LA
200 PM CDT FRI AUG 22 2014

NOTE: "FAIR" INDICATES FEW OR NO CLOUDS BELOW 12,000 FEET WITH NO
      SIGNIFICANT WEATHER AND/OR OBSTRUCTIONS TO VISIBILITY.
      SKY/WX - SKY CONDITION AND SIGNIFICANT WEATHER.
      TMP - AIR TEMPERATURE.     DP    - DEWPOINT TEMPERATURE.
      RH  - RELATIVE HUMIDITY.   PRES  - PRESSURE.
      HI  - HEAT INDEX.          WCI   - WIND CHILL INDEX.

*  THESE STATIONS ARE NOT NWS OR FAA STATIONS AND ARE NOT UNDER
   NWS QUALITY CONTROL.

LAZ038-040-048-061>063-065>067-069-222000-
SOUTHEAST LOUISIANA

CITY           SKY/WX    TMP DP  RH WIND       PRES   REMARKS
N.O. AUDUBON     N/A     93  76  56 MISG        N/A  HX 105
N.O. INTL ARPT MOSUNNY   90  75  61 NE9       30.09F HX 100
N.O. LAKEFRONT SUNNY     88  75  65 NW6       30.10F HX  97
N.O. DOWNTOWN*   N/A     91  72  52 NW5       30.10F HX  98
SLIDELL        MOSUNNY   93  72  50 N3        30.08F HX 101
BATON ROUGE    MOSUNNY   93  71  48 VRB3      30.09F HX 100
BOOTHVILLE     SUNNY     91  76  61 NE6       30.10F HX 103
BELLE CHASSE   PTSUNNY   93  72  50 NE7       30.08F HX 101
BOGALUSA*        N/A     93  69  46 CALM      30.10F HX  98
GALLIANO*      NOT AVBL
NEW ROADS*       N/A     91  71  52 NW5       30.09F HX  98
GONZALES*        N/A     91  76  60 N3        30.08F HX 103
HAMMOND*       SUNNY     95  70  43 CALM      30.10F HX 101
HOUMA*         MOSUNNY   95  70  43 E5        30.08F HX 101
PORT FOURCHON* CLEAR     90  73  58 NE7       30.10F HX  98

$$

MSZ070-080>082-222000-
SOUTHERN MISSISSIPPI

CITY           SKY/WX    TMP DP  RH WIND       PRES   REMARKS
MCCOMB         MOSUNNY   91  72  53 CALM      30.10F HX  98
GULFPORT       SUNNY     94  73  50 S6        30.07F HX 103
BILOXI         MOSUNNY   94  76  54 S10       30.08F HX 106
PASCAGOULA     MOSUNNY   94  72  48 CALM      30.07F HX 102
STENNIS ARPT*  MOSUNNY  N/A N/A N/A CALM      30.08F

$$

COASTAL OBSERVATIONS
LAKE AND NEARSHORE STATIONS

STATION/POSITION TIME  TEMP    WIND        PRES    WAVE
                       AIR SEA DIR/SP/G            HT/PER
                 (UTC) (F)     (DEG/KT/KT) (MB)    (FT/S)
PASCAGOULA       1900   92     180/  8/ 10 1018.1
WAVELAND YACHT   1900   87     150/  9/ 11 1018.1
GRAND ISLE       1900   90 89   40/  3/  6 1019.7
SOUTHWEST PASS   1900   94 88  360/  7/  9 1019.3
NEW CANAL        1900   86 85  340/  3/  4 1019.7
SHELL BEACH      1900   86 83  350/  4/  5 1019.0

OFFSHORE STATIONS

STATION/POSITION TIME  TEMP    WIND        PRES    WAVE
                       AIR SEA DIR/SP/G            HT/PER
                 (UTC) (F)     (DEG/KT/KT) (MB)    (FT/S)
64 S DAUPHIN ISL 1848   86 90   10/ 10/ 12 1019.0

$$



USA.gov is the U.S. government's official web portal to all federal, state and local government web resources and services.